Regional Weather Roundup
Issued by NWS Raleigh/Durham, NC

Home | Current Version | Previous Version | Text Only | Print | Product List | Glossary On
Versions: 1 2 3 4 5 6 7 8 9 10 11 12 13 14 15 16 17 18 19 20 21 22 23 24 25 26 27 28 29 30 31 32 33 34 35 36 37 38 39 40 41 42 43 44 45 46 47 48 49 50
000
ASUS42 KRAH 191310
RWRRAH
NORTH CAROLINA WEATHER ROUNDUP
NATIONAL WEATHER SERVICE RALEIGH NC
900 AM EDT FRI SEP 19 2014

NOTE: "FAIR" INDICATES FEW OR NO CLOUDS BELOW 12,000 FEET WITH NO
SIGNIFICANT WEATHER AND/OR OBSTRUCTIONS TO VISIBILITY.

NCZ001-053-055-056-065-067-191400-
WESTERN NORTH CAROLINA

CITY           SKY/WX    TMP DP  RH WIND       PRES   REMARKS
ASHEVILLE      CLOUDY    61  60  97 CALM      30.18S FOG
JEFFERSON      CLOUDY    60  59  97 CALM      30.22R FOG
HICKORY        CLOUDY    67  64  90 NE6       30.16R
RUTHERFORDTON  NOT AVBL
MOUNT AIRY     CLOUDY    67  64  90 E5        30.19S
$$

NCZ021-022-025-041-071-084-088-191400-
CENTRAL NORTH CAROLINA

CITY           SKY/WX    TMP DP  RH WIND       PRES   REMARKS
CHARLOTTE      CLOUDY    68  63  84 NE7       30.15R
GREENSBORO     LGT RAIN  65  60  84 NE5       30.17R
WINSTON-SALEM  CLOUDY    65  60  84 CALM      30.19R
RALEIGH-DURHAM CLOUDY    66  58  75 E6        30.17R
FORT BRAGG     CLOUDY    66  61  85 NE6       30.15R
FAYETTEVILLE   CLOUDY    66  62  87 NE7       30.14R
$$

NCZ011-015-027-028-043-044-047-080-103-191400-
NORTHEASTERN NORTH CAROLINA

CITY           SKY/WX    TMP DP  RH WIND       PRES   REMARKS
ROANOKE RAPIDS CLOUDY    63  61  94 CALM      30.19S
ROCKY MT-WILSO CLOUDY    67  60  78 NE5       30.18R
GREENVILLE     PTSUNNY   66  61  82 CALM      30.19R
WASHINGTON     MOSUNNY   67  60  79 NE6       30.17R
ELIZABETH CITY NOT AVBL
MANTEO         SUNNY     73  59  61 NE10      30.18R
CAPE HATTERAS  SUNNY     73  59  61 NE13G18   30.15R
$$

NCZ078-087-090-091-093-098-101-191400-
SOUTHEASTERN NORTH CAROLINA

CITY           SKY/WX    TMP DP  RH WIND       PRES   REMARKS
LUMBERTON      CLOUDY    69  60  73 E7        30.12R
GOLDSBORO      CLOUDY    66  64  93 NE8       30.15R
KINSTON        CLOUDY    68  61  77 NE6       30.17R
KENANSVILLE    PTSUNNY   68  61  78 E5        30.16R
NEW BERN       CLOUDY    73  61  65 E9G18     30.16R
CHERRY POINT   PTSUNNY   72  64  76 NE13      30.16R
BEAUFORT       MOSUNNY   74  65  73 NE8       30.14R
JACKSONVILLE   PTSUNNY   69  62  78 NE10      30.13R
WILMINGTON     PTSUNNY   70  63  78 NE8       30.12R
$$




USA.gov is the U.S. government's official web portal to all federal, state and local government web resources and services.